Location: Kumla
(59.1265°N, 15.1401°E)
Time: 07:20:04
(UTC+01:00)

Transit 4A - Pass Details

Date: 04 December 2023
Orbit: 870 x 973 km, 66.8° (Epoch: 02 March)

Event Time Altitude Azimuth Distance (km) Brightness Sun altitude
Exits shadow 03:51:48 40° 130° (SE) 1,326 8.8 -33.9°
Drops below altitude 10° 03:55:30 10° 132° (SE) 2,592 10.6 -33.4°
Sets 03:57:58 0° 132° (SE) 3,515 11.4 -33.1°
